Temp
9 9 9 8 8 8 8 7 7 7 7 7 7 7 7 7 7 7 7 7 7 7 7 8 8 8 8 8 8 7 7 6 6 6 6 6 6 6 6 6 6 6 6
8 8 8 8 8 8 7 7 7 7 7 7 7 7 7 7 7 7 7 7 7 7 7 8 8 8 8 8 7 7 7 7 6 5 6 6 6 6 6 6 6 6 6
7 7 7 7 7 7 7 7 7 7 7 7 6 6 7 7 7 6 7 7 7 6 7 7 7 7 7 7 7 7 7 7 6 6 5 6 6 6 6 6 5 5 6
6 7 7 7 7 7 7 7 7 7 6 7 6 6 6 6 6 6 7 7 6 6 6 6 6 6 6 7 7 7 7 7 6 6 6 6 6 6 5 6 5 5 5
5 6 6 6 6 6 6 6 6 6 6 6 6 6 6 6 6 6 6 6 6 6 6 6 6 6 6 6 6 6 7 7 6 6 6 6 6 5 5 6 5 5 6
5 5 5 5 5 5 5 5 6 6 6 6 6 5 6 6 6 6 6 6 6 6 6 5 5 6 6 6 6 6 6 6 6 6 6 6 6 6 6 6 5 5 6
5 5 5 4 3 4 4 5 5 5 5 5 5 5 6 6 6 6 6 6 6 6 5 5 5 5 5 6 6 6 6 6 6 6 5 5 5 5 6 6 6 6 6
5 4 3 4 3 3 3 4 4 4 5 5 5 5 5 5 5 5 6 6 6 6 6 5 5 5 5 5 6 6 5 6 6 6 5 5 5 5 5 6 6 6 6
5 4 4 4 3 2 3 3 3 3 4 4 5 5 5 5 5 5 5 5 5 5 5 5 5 5 5 5 5 5 5 5 5 6 6 6 5 5 5 5 5 5 5
5 5 4 3 3 3 3 3 3 3 3 4 4 4 5 5 5 5 5 5 5 5 4 5 5 5 5 5 5 5 5 5 5 5 5 6 6 5 5 5 5 5 5
5 5 5 3 3 4 3 3 2 3 3 4 4 4 4 4 4 5 5 4 4 4 4 4 4 4 4 4 5 5 5 5 5 5 5 5 5 6 5 5 5 5 4
4 5 4 3 3 3 3 3 3 3 4 4 4 4 4 4 4 4 4 4 4 4 4 4 4 4 4 4 4 4 5 5 5 5 4 4 4 5 5 5 5 5 5
4 4 4 3 3 3 3 3 3 3 3 4 4 4 4 3 3 4 3 4 4 4 4 4 4 4 3 3 3 4 4 4 4 4 4 4 4 4 4 4 5 5 5
4 3 3 2 2 2 2 3 3 3 3 3 4 4 3 3 4 3 3 3 3 3 3 4 4 3 2 2 3 4 4 4 4 4 4 4 4 4 4 4 4 4 4
3 3 3 3 2 2 2 2 2 2 3 3 4 3 3 3 3 3 3 3 3 3 4 4 4 3 3 1 3 4 4 5 4 4 4 4 4 4 4 4 4 4 4
4 3 3 2 2 2 2 2 2 2 3 3 3 4 3 3 3 3 3 3 4 4 4 4 4 4 3 2 3 4 4 4 4 5 5 5 4 4 4 4 4 4 4
4 3 3 3 2 2 2 3 3 3 3 3 3 3 3 3 3 3 3 3 3 3 3 4 4 4 4 3 4 4 4 4 5 5 5 4 4 4 4 4 4 4 4
3 3 3 3 3 2 2 3 3 3 3 3 3 3 3 3 3 3 3 3 3 3 3 4 4 4 4 4 4 4 4 5 5 5 4 4 4 4 5 5 5 5 4
3 3 3 3 3 3 2 2 2 2 2 2 2 2 2 2 2 3 3 3 3 3 3 4 4 4 4 4 4 4 4 4 5 5 4 4 4 4 4 4 4 4 4
3 2 2 2 3 2 2 2 1 1 1 1 1 2 2 2 2 2 2 3 3 3 3 3 4 4 4 4 4 4 5 5 5 4 4 4 4 4 4 4 4 4 4
3 2 2 2 2 2 2 1 1 1 1 1 1 1 1 2 2 2 2 2 3 3 3 3 3 4 4 4 4 4 4 4 4 4 4 4 4 4 4 4 4 4 4
2 2 2 2 1 1 1 1 0 0 0 1 1 1 1 1 1 2 2 2 2 2 3 3 3 3 3 4 4 4 4 4 4 4 4 4 4 4 4 4 3 3 3
1 1 1 1 1 1 0 0 0 -0 0 0 0 1 1 1 1 1 2 2 2 2 2 2 3 3 3 3 3 3 4 4 3 3 4 4 3 3 3 3 3 3 3
1 0 0 0 0 -0 -0 -1 -0 -0 -0 -0 -0 -0 0 0 1 1 1 1 1 2 2 2 2 2 2 2 3 3 3 3 3 4 3 3 3 3 3 2 2 2 2
0 -0 -0 -0 -0 -1 -1 -1 -1 -1 -1 -1 -1 -1 -0 -0 -0 -0 0 0 1 1 1 1 1 2 2 2 2 2 2 2 2 3 4 3 2 3 3 3 2 2 1
0 -0 -0 -0 -0 -1 -1 -1 -1 -1 -1 -1 -1 -1 -1 -1 -1 -1 -1 -0 -0 0 0 0 1 1 1 1 1 2 2 2 2 2 3 3 3 2 2 2 1 1 1
Height
3145 3145 3145 3146 3146 3147 3148 3148 3150 3150 3152 3154 3155 3155 3156 3157 3158 3158 3159 3159 3159 3159 3159 3159 3158 3158 3157 3157 3157 3157 3158 3159 3159 3160 3161 3162 3163 3164 3165 3165 3167 3166 3168
3142 3143 3143 3144 3146 3146 3148 3148 3149 3150 3151 3153 3154 3155 3156 3156 3157 3158 3158 3158 3159 3159 3159 3159 3158 3158 3158 3158 3158 3157 3157 3158 3159 3160 3161 3162 3163 3164 3165 3166 3167 3168 3169
3141 3142 3142 3143 3144 3146 3148 3148 3148 3150 3151 3153 3154 3155 3155 3156 3157 3158 3158 3158 3158 3159 3159 3159 3159 3159 3159 3159 3158 3158 3157 3157 3157 3158 3161 3162 3163 3165 3166 3166 3168 3168 3169
3139 3140 3141 3141 3143 3145 3145 3147 3147 3149 3151 3152 3153 3154 3155 3155 3157 3158 3158 3158 3158 3159 3159 3159 3158 3159 3159 3159 3159 3158 3157 3157 3157 3157 3159 3161 3163 3164 3165 3167 3168 3169 3170
3138 3140 3140 3141 3141 3143 3144 3145 3147 3148 3150 3151 3153 3153 3154 3155 3156 3157 3158 3158 3159 3159 3159 3159 3158 3159 3159 3159 3159 3158 3158 3158 3157 3158 3159 3161 3162 3164 3165 3167 3168 3169 3170
3136 3138 3138 3139 3142 3142 3143 3144 3145 3147 3149 3150 3151 3153 3154 3155 3155 3156 3157 3158 3158 3159 3159 3159 3159 3159 3159 3159 3160 3159 3159 3158 3158 3159 3159 3160 3162 3163 3164 3166 3167 3169 3170
3133 3132 3134 3135 3139 3142 3140 3143 3145 3147 3147 3150 3150 3152 3153 3154 3154 3155 3156 3156 3157 3158 3159 3158 3158 3158 3158 3159 3159 3160 3159 3158 3158 3159 3160 3161 3162 3163 3163 3165 3166 3168 3170
3131 3132 3131 3132 3130 3135 3137 3139 3143 3144 3145 3147 3148 3150 3151 3152 3153 3153 3154 3155 3156 3156 3157 3157 3158 3158 3158 3158 3158 3159 3159 3159 3158 3159 3159 3160 3162 3162 3163 3164 3165 3166 3168
3130 3129 3130 3131 3131 3134 3135 3138 3138 3139 3143 3145 3147 3148 3149 3150 3151 3152 3153 3153 3154 3154 3155 3156 3156 3157 3157 3157 3157 3158 3158 3158 3158 3158 3158 3159 3160 3161 3162 3162 3163 3165 3166
3128 3128 3130 3132 3132 3132 3133 3136 3136 3140 3139 3143 3145 3146 3147 3148 3148 3149 3151 3151 3151 3152 3153 3154 3154 3155 3155 3155 3155 3156 3157 3157 3157 3158 3158 3158 3159 3160 3160 3161 3162 3163 3165
3127 3126 3126 3126 3128 3130 3133 3132 3127 3127 3138 3142 3143 3143 3144 3145 3146 3147 3148 3149 3150 3150 3151 3151 3152 3153 3153 3153 3153 3153 3154 3156 3156 3156 3157 3157 3158 3158 3159 3160 3160 3161 3162
3126 3125 3125 3125 3126 3128 3132 3134 3135 3137 3138 3140 3141 3140 3142 3142 3143 3145 3145 3146 3147 3147 3148 3148 3149 3150 3150 3151 3150 3150 3151 3153 3154 3155 3155 3155 3156 3157 3157 3157 3158 3159 3160
3126 3125 3124 3125 3126 3128 3131 3133 3135 3136 3136 3135 3137 3139 3139 3139 3140 3141 3142 3143 3144 3144 3145 3145 3145 3146 3146 3146 3148 3147 3148 3149 3151 3152 3152 3153 3153 3154 3155 3155 3156 3157 3157
3125 3125 3124 3124 3125 3127 3129 3130 3131 3132 3133 3134 3134 3134 3135 3137 3137 3138 3139 3139 3140 3141 3141 3141 3141 3141 3143 3142 3143 3144 3145 3146 3147 3148 3149 3150 3150 3151 3152 3152 3153 3154 3155
3120 3122 3123 3123 3123 3125 3127 3127 3126 3127 3129 3130 3131 3132 3132 3133 3134 3134 3136 3136 3136 3137 3137 3137 3137 3137 3138 3138 3139 3140 3140 3141 3142 3143 3145 3145 3146 3147 3148 3148 3149 3150 3151
3114 3115 3118 3120 3120 3121 3122 3123 3124 3124 3125 3127 3128 3128 3129 3131 3131 3132 3133 3133 3133 3134 3133 3133 3134 3134 3134 3136 3138 3137 3138 3137 3137 3138 3140 3141 3142 3142 3143 3144 3144 3146 3146
3113 3113 3113 3114 3117 3118 3118 3120 3120 3121 3121 3122 3123 3125 3125 3127 3128 3129 3130 3130 3131 3132 3132 3132 3132 3132 3134 3134 3134 3134 3134 3134 3134 3134 3135 3136 3137 3137 3138 3138 3139 3140 3140
3111 3110 3110 3111 3112 3114 3115 3115 3115 3117 3118 3119 3120 3121 3122 3124 3125 3125 3126 3127 3129 3130 3130 3130 3130 3130 3130 3131 3130 3130 3130 3130 3131 3131 3131 3131 3131 3132 3132 3133 3133 3134 3134
3109 3108 3108 3108 3109 3110 3111 3111 3112 3113 3115 3116 3118 3119 3121 3121 3123 3123 3124 3125 3126 3126 3127 3127 3127 3127 3128 3128 3128 3127 3126 3126 3126 3126 3126 3126 3126 3127 3127 3127 3127 3127 3128
3103 3105 3106 3106 3106 3106 3107 3108 3110 3111 3113 3114 3116 3117 3118 3120 3120 3121 3122 3122 3122 3123 3124 3124 3124 3124 3124 3124 3124 3123 3122 3122 3121 3121 3120 3120 3121 3120 3120 3120 3121 3122 3122
3098 3101 3102 3103 3104 3104 3105 3106 3108 3110 3111 3113 3114 3115 3115 3117 3118 3119 3119 3119 3119 3120 3120 3120 3120 3119 3119 3120 3120 3119 3117 3117 3117 3116 3115 3115 3114 3114 3113 3113 3114 3115 3115
3095 3094 3096 3098 3100 3102 3103 3105 3107 3108 3109 3110 3111 3112 3113 3114 3115 3116 3116 3117 3117 3117 3118 3118 3118 3117 3116 3115 3115 3115 3114 3114 3112 3110 3110 3110 3109 3108 3107 3107 3107 3108 3107
3092 3094 3094 3094 3096 3098 3101 3103 3105 3106 3107 3108 3108 3109 3110 3110 3111 3112 3112 3113 3113 3113 3113 3113 3112 3112 3111 3110 3111 3110 3109 3108 3107 3105 3104 3103 3102 3102 3101 3100 3100 3100 3100
3090 3090 3092 3092 3093 3095 3098 3100 3102 3103 3104 3105 3106 3106 3107 3107 3108 3108 3108 3109 3109 3109 3108 3108 3107 3107 3106 3105 3103 3103 3103 3101 3100 3101 3100 3097 3096 3095 3093 3093 3093 3092 3091
3086 3088 3089 3090 3091 3092 3094 3097 3099 3101 3102 3102 3103 3104 3104 3104 3105 3105 3105 3106 3105 3105 3105 3105 3104 3103 3102 3101 3100 3099 3097 3094 3093 3092 3093 3094 3092 3088 3087 3086 3085 3084 3083
3083 3085 3087 3088 3088 3089 3090 3093 3095 3097 3098 3099 3100 3101 3101 3101 3102 3102 3102 3102 3101 3101 3100 3099 3099 3098 3097 3095 3094 3092 3092 3091 3089 3085 3083 3084 3083 3084 3081 3080 3077 3076 3075
Wind_Speed
8 12 12 10 10 10 10 10 9 9 7 6 7 7 7 7 6 3 1 3 2 2 3 4 4 4 4 4 4 4 5 9 6 7 8 9 7 6 3 5 5 8 9
12 10 12 12 11 10 10 11 11 11 10 8 9 9 9 8 7 4 3 3 0 1 2 3 5 5 5 5 5 4 3 4 10 9 9 9 7 4 5 6 7 7 7
12 12 13 12 12 11 11 12 13 12 11 10 10 10 9 8 7 5 4 4 3 2 0 1 3 5 6 6 7 5 4 2 5 10 12 10 8 6 6 8 8 8 7
16 13 12 14 13 14 14 13 13 13 13 13 12 10 10 9 7 6 5 5 5 4 3 2 1 3 4 6 7 7 6 4 4 7 10 12 10 8 8 9 7 7 7
13 12 10 13 14 14 15 14 15 14 14 14 13 11 9 8 8 6 6 5 5 5 4 3 2 1 1 3 5 6 5 4 5 6 7 10 10 9 9 9 8 8 7
14 13 12 13 15 15 15 15 15 14 14 14 13 11 9 8 7 6 5 5 6 6 7 6 5 5 3 2 2 3 4 3 4 5 6 7 9 8 9 10 10 7 6
16 18 16 12 14 14 14 13 15 15 14 13 12 11 9 8 7 7 6 6 7 7 8 8 7 7 6 5 3 1 1 2 3 6 7 8 8 7 9 10 10 9 8
15 17 15 24 13 15 16 16 15 15 15 13 12 11 10 9 8 8 8 8 8 8 9 9 8 8 8 7 6 4 3 1 1 4 8 8 7 6 8 8 9 10 10
12 15 16 16 21 9 16 17 16 14 13 13 12 11 11 11 10 9 9 9 9 10 10 10 10 9 9 9 8 6 6 5 3 3 5 10 11 9 8 9 10 12 13
10 12 9 9 5 6 16 26 21 17 12 13 14 14 14 14 14 12 11 12 12 12 12 12 12 12 12 13 12 10 7 9 7 6 5 6 10 12 12 11 11 13 14
12 12 10 8 6 5 4 4 15 13 9 13 15 15 15 16 15 14 14 14 13 14 15 14 14 15 15 15 14 13 12 10 10 10 8 7 7 8 11 15 14 13 15
14 15 8 9 7 6 8 8 11 12 14 14 16 17 18 17 16 17 17 13 14 15 16 17 20 19 18 18 16 15 15 14 13 12 12 11 11 10 10 12 15 17 16
11 14 13 10 12 11 9 13 15 12 13 15 16 20 20 19 19 18 18 16 17 18 16 16 21 22 19 20 19 17 18 18 17 16 15 15 14 14 14 12 13 14 17
13 13 13 14 13 10 12 18 14 16 17 19 20 19 20 17 21 21 20 18 15 16 18 19 19 18 22 21 16 19 20 21 20 20 19 19 17 17 17 16 16 15 14
14 14 14 14 13 12 11 14 18 18 18 17 17 16 19 19 19 22 22 17 17 18 18 18 18 17 18 24 18 18 19 21 22 23 22 21 21 20 21 21 20 19 18
15 15 15 15 14 13 13 14 15 17 17 17 17 16 18 19 19 20 19 20 18 17 16 14 13 13 16 20 23 18 18 18 20 22 22 24 24 23 24 24 24 24 24
16 15 15 16 15 15 15 16 17 19 18 17 18 18 18 19 17 16 17 16 13 12 13 12 12 12 14 16 16 14 15 15 17 19 20 21 23 25 27 28 29 29 29
16 16 16 16 16 16 17 17 17 16 17 16 15 15 15 16 14 13 12 11 11 11 11 12 12 13 14 15 15 16 16 18 19 20 21 21 23 24 26 28 29 30 30
17 17 17 16 16 16 17 15 14 13 13 10 9 9 9 10 10 10 11 11 11 11 12 12 12 12 13 13 14 15 17 19 20 22 24 25 25 26 27 28 29 28 29
17 17 16 15 15 15 15 13 11 10 9 8 8 9 8 10 9 11 11 12 13 13 13 12 12 12 12 13 14 15 16 18 20 21 23 25 27 28 29 31 32 31 31
17 16 15 14 14 14 14 12 11 10 10 9 9 9 9 10 11 11 12 12 12 12 13 13 13 14 15 15 15 17 19 19 19 21 21 22 25 28 30 31 33 33 34
16 16 14 13 14 15 14 13 13 12 11 11 11 11 11 11 10 11 11 11 11 12 12 13 13 14 16 17 16 16 16 18 18 20 21 22 24 26 28 30 32 32 33
12 13 13 13 14 15 16 15 14 13 13 12 12 12 12 12 12 12 13 13 14 15 14 15 15 16 18 19 18 18 18 16 16 18 19 21 23 25 27 29 31 32 33
8 9 13 14 15 16 18 17 16 15 14 14 13 13 12 13 13 14 15 16 16 17 18 19 20 20 20 21 23 22 20 20 19 17 18 22 24 27 29 30 31 33 34
11 10 10 12 15 17 19 18 18 17 16 15 14 14 13 14 14 15 16 16 17 18 19 20 21 21 22 22 23 23 24 25 25 25 22 18 22 27 29 31 32 33 35
15 15 14 12 13 16 18 19 19 18 17 16 15 15 14 14 14 15 17 18 19 20 21 22 23 23 24 25 26 26 26 27 28 32 33 31 30 25 28 30 31 33 33
Wind_Direction
268 242 225 211 197 198 198 198 198 199 195 197 185 180 185 193 193 199 281 324 357 36 40 32 29 28 33 40 57 97 172 201 198 174 163 163 168 165 168 151 157 150 142
237 219 219 215 207 205 205 206 203 202 196 195 192 191 191 194 203 215 267 289 256 94 48 37 42 45 44 51 58 72 114 188 214 201 186 174 179 167 162 156 147 146 141
230 233 229 219 212 209 216 214 208 203 198 195 203 198 197 204 220 224 251 242 224 207 206 43 48 45 49 45 51 52 58 86 183 200 200 193 195 177 160 164 166 156 158
252 250 229 216 216 214 216 217 211 205 202 198 202 206 201 211 226 242 246 233 223 217 208 201 109 52 43 45 46 41 40 58 123 164 190 194 192 179 178 177 172 165 160
249 269 249 223 211 216 217 212 208 208 203 202 205 212 206 217 238 243 244 242 232 229 232 244 260 280 340 32 45 44 41 63 110 132 166 187 190 191 191 190 193 191 190
240 246 247 228 219 215 218 211 207 206 206 205 206 209 224 228 230 234 240 241 236 233 239 250 270 283 285 301 7 40 50 68 141 138 145 166 185 190 204 203 204 203 203
253 239 219 211 217 221 215 216 210 208 206 209 210 218 224 220 221 229 234 236 237 243 245 253 261 267 277 281 278 253 62 86 153 173 156 153 166 180 201 205 213 210 208
256 260 244 237 255 204 205 202 205 206 208 212 217 221 222 220 222 225 230 233 234 239 246 252 259 267 276 277 272 253 228 179 173 182 193 188 187 198 195 200 203 198 193
268 267 274 296 303 217 215 213 206 208 219 219 225 230 230 227 225 227 233 240 244 245 243 250 253 256 261 266 268 262 241 234 226 206 199 205 207 209 210 205 200 195 197
272 284 279 299 318 349 198 232 217 217 213 231 231 231 235 237 235 238 241 242 245 251 253 254 250 249 251 256 258 259 249 237 241 238 229 214 216 219 223 221 215 216 216
288 288 289 284 293 272 213 221 209 200 231 236 239 238 237 241 246 248 250 251 258 260 259 256 254 254 251 251 253 254 254 247 243 243 246 244 234 227 233 235 230 223 225
292 291 284 253 265 272 259 265 252 243 245 254 249 245 247 247 250 253 254 256 265 263 260 264 262 258 258 252 247 251 254 252 250 248 247 247 246 242 234 239 238 237 235
283 284 282 259 247 244 242 241 241 238 255 242 262 260 247 247 249 245 252 265 263 258 259 264 266 259 253 248 249 252 259 258 256 254 251 248 250 251 249 243 243 238 238
281 275 273 275 267 253 226 224 237 243 253 259 257 249 238 246 249 252 262 271 256 260 268 276 272 268 257 230 255 257 259 262 261 258 255 254 251 250 251 252 251 250 245
271 273 270 264 268 272 252 235 236 242 254 262 263 247 238 243 252 257 262 265 270 275 275 274 272 270 270 234 259 270 263 258 258 259 257 256 256 255 253 253 255 255 257
258 260 263 265 265 259 258 260 251 245 251 256 258 254 252 254 255 256 264 271 272 271 266 264 266 267 264 250 257 261 262 263 263 262 261 258 256 256 256 257 256 256 257
261 258 259 260 260 260 257 259 258 255 250 248 250 250 249 254 259 256 258 260 258 255 259 261 262 260 261 257 258 263 265 266 266 266 265 264 261 258 258 257 258 259 260
261 258 257 255 257 261 264 262 256 254 254 250 246 244 246 247 244 244 246 249 251 255 258 262 265 270 271 272 275 274 272 269 267 266 266 265 265 265 264 264 264 264 263
261 257 254 255 258 261 261 254 248 244 242 236 236 238 234 236 245 248 255 259 263 267 270 272 274 275 276 280 280 280 278 274 272 270 269 267 266 266 266 267 267 268 268
253 254 256 259 261 261 254 242 228 218 215 214 216 225 234 247 249 258 263 269 273 277 278 278 278 280 286 292 292 290 284 282 280 277 273 272 271 270 269 269 269 268 267
254 251 250 257 257 249 239 222 212 215 221 228 233 240 247 255 259 261 265 271 274 277 280 283 287 291 293 296 298 298 294 292 288 284 281 278 276 275 272 270 270 270 270
252 244 247 258 252 241 227 223 223 226 233 238 244 248 253 256 263 269 271 272 272 273 278 282 286 290 294 296 297 296 292 294 295 292 290 286 281 278 277 276 274 271 270
255 255 249 252 245 239 232 230 234 238 242 248 251 255 259 263 267 269 274 279 283 285 285 286 289 292 296 295 297 298 298 296 297 301 300 298 293 288 283 279 278 276 273
238 250 248 245 240 238 239 239 242 246 249 252 257 261 263 267 270 275 279 281 284 285 288 290 292 295 297 299 301 300 298 298 298 293 299 299 299 295 292 288 283 279 275
234 249 257 252 245 240 240 243 247 250 254 256 259 263 267 270 275 279 279 279 280 281 283 284 286 288 288 290 291 294 298 302 303 300 295 291 290 291 290 288 286 281 278
242 251 259 265 256 248 246 247 251 254 257 258 261 263 266 270 273 274 276 278 282 284 283 282 282 283 285 287 289 289 288 289 294 296 297 297 296 287 284 283 282 279 276